DW5656 Weather Reports


Display with metric or nautical units.
time (UTC)temp
F
wind
direction
speed
MPH
gust
MPH
rain 1hr
in
rain 24hr
in
rain mn
in
humidity
%
barometer
mb
20170924211226 79 202 1.0 6.0 0.00 0.00 0.00 52 1018.2
20170924210325 79 225 2.0 6.0 0.00 0.00 0.00 51 1018.2
20170924205426 79 252 2.0 7.0 0.00 0.00 0.00 51 1018.3
20170924204525 79 251 3.0 5.0 0.00 0.00 0.00 51 1018.2
20170924203626 79 251 3.0 7.0 0.00 0.00 0.00 51 1018.1
20170924202725 80 259 4.0 10.0 0.00 0.00 0.00 51 1018.2
20170924201826 80 247 4.0 8.0 0.00 0.00 0.00 50 1018.1
20170924200926 80 244 4.0 8.0 0.00 0.00 0.00 49 1018.0
20170924200025 81 250 3.0 7.0 0.00 0.00 0.00 49 1017.9
20170924195125 82 241 3.0 8.0 0.00 0.00 0.00 48 1017.9
20170924194226 82 252 5.0 7.0 0.00 0.00 0.00 47 1017.8
20170924193326 82 257 4.0 10.0 0.00 0.00 0.00 46 1017.7
20170924192425 83 257 4.0 10.0 0.00 0.00 0.00 46 1017.6
20170924191526 83 257 5.0 10.0 0.00 0.00 0.00 45 1017.5
20170924190626 83 249 5.0 10.0 0.00 0.00 0.00 45 1017.5
20170924185726 84 249 4.0 10.0 0.00 0.00 0.00 46 1017.4
20170924184825 84 247 4.0 10.0 0.00 0.00 0.00 46 1017.3
20170924183926 84 245 5.0 9.0 0.00 0.00 0.00 48 1017.2
20170924183025 84 234 4.0 11.0 0.00 0.00 0.00 47 1017.1
20170924182126 84 223 4.0 8.0 0.00 0.00 0.00 46 1017.0
20170924181226 85 218 4.0 9.0 0.00 0.00 0.00 45 1016.9
20170924180325 86 210 4.0 10.0 0.00 0.00 0.00 43 1016.9
20170924175425 87 215 4.0 12.0 0.00 0.00 0.00 41 1016.9
20170924174525 88 212 4.0 9.0 0.00 0.00 0.00 38 1016.9
20170924173625 89 235 3.0 9.0 0.00 0.00 0.00 36 1016.8
20170924172725 90 264 2.0 4.0 0.00 0.00 0.00 31 1016.8
20170924171825 90 241 2.0 4.0 0.00 0.00 0.00 31 1016.7
20170924170925 91 208 1.0 4.0 0.00 0.00 0.00 30 1016.7
20170924170025 90 59 2.0 3.0 0.00 0.00 0.00 31 1016.7
20170924165125 90 76 2.0 5.0 0.00 0.00 0.00 31 1016.7
20170924164226 90 94 1.0 6.0 0.00 0.00 0.00 30 1016.8
20170924163325 90 82 2.0 3.0 0.00 0.00 0.00 31 1016.8
20170924162425 89 9 3.0 5.0 0.00 0.00 0.00 31 1016.9
20170924161525 89 17 3.0 5.0 0.00 0.00 0.00 30 1016.9
20170924160625 89 331 4.0 8.0 0.00 0.00 0.00 32 1016.9
20170924155725 89 320 3.0 8.0 0.00 0.00 0.00 31 1017.0
20170924154826 89 355 2.0 6.0 0.00 0.00 0.00 33 1017.1
20170924153925 89 342 3.0 6.0 0.00 0.00 0.00 34 1017.1
20170924153026 88 323 3.0 8.0 0.00 0.00 0.00 35 1017.1
20170924152125 89 88 3.0 6.0 0.00 0.00 0.00 35 1017.0
20170924151225 88 328 3.0 6.0 0.00 0.00 0.00 36 1017.1
20170924150325 88 330 3.0 8.0 0.00 0.00 0.00 36 1017.2
20170924145425 88 324 3.0 6.0 0.00 0.00 0.00 36 1017.3
20170924144526 88 306 3.0 6.0 0.00 0.00 0.00 35 1017.3
20170924143625 88 273 2.0 8.0 0.00 0.00 0.00 36 1017.5
20170924142725 88 250 3.0 7.0 0.00 0.00 0.00 36 1017.5
20170924141825 89 246 2.0 7.0 0.00 0.00 0.00 36 1017.5
20170924140925 88 299 2.0 6.0 0.00 0.00 0.00 36 1017.6
20170924140025 87 323 3.0 5.0 0.00 0.00 0.00 37 1017.6
20170924135125 88 46 2.0 5.0 0.00 0.00 0.00 36 1017.7
20170924134225 87 157 3.0 5.0 0.00 0.00 0.00 36 1017.7
20170924133325 86 241 3.0 6.0 0.00 0.00 0.00 38 1017.8
20170924132425 86 2 3.0 5.0 0.00 0.00 0.00 38 1017.9
20170924131525 86 65 2.0 8.0 0.00 0.00 0.00 39 1018.0
20170924130625 86 268 2.0 6.0 0.00 0.00 0.00 41 1018.1
20170924125725 85 241 3.0 6.0 0.00 0.00 0.00 43 1018.2
20170924124825 85 124 2.0 7.0 0.00 0.00 0.00 43 1018.3
20170924123925 84 63 3.0 7.0 0.00 0.00 0.00 44 1018.4
20170924123025 84 54 3.0 8.0 0.00 0.00 0.00 44 1018.5
20170924122125 84 35 2.0 8.0 0.00 0.00 0.00 45 1018.5
20170924121225 84 1 2.0 4.0 0.00 0.00 0.00 46 1018.6
20170924120326 82 308 2.0 5.0 0.00 0.00 0.00 47 1018.7
20170924115425 82 300 2.0 4.0 0.00 0.00 0.00 48 1018.8
20170924114525 83 11 3.0 4.0 0.00 0.00 0.00 47 1018.9
20170924113625 82 3 2.0 7.0 0.00 0.00 0.00 48 1018.9
20170924112725 81 282 2.0 4.0 0.00 0.00 0.00 51 1019.0
20170924111825 81 3 3.0 6.0 0.00 0.00 0.00 52 1019.1
20170924110925 81 45 2.0 7.0 0.00 0.00 0.00 52 1019.2
20170924110025 81 61 2.0 6.0 0.00 0.00 0.00 53 1019.3
20170924105125 80 32 1.0 6.0 0.00 0.00 0.00 54 1019.3
20170924104225 79 293 2.0 4.0 0.00 0.00 0.00 56 1019.4
20170924103325 78 305 2.0 4.0 0.00 0.00 0.00 58 1019.5
20170924102425 78 345 2.0 5.0 0.00 0.00 0.00 57 1019.6
20170924101525 78 351 2.0 5.0 0.00 0.00 0.00 58 1019.6
20170924100625 78 28 2.0 5.0 0.00 0.00 0.00 58 1019.5
20170924095725 78 29 1.0 5.0 0.00 0.00 0.00 58 1019.6
20170924094825 76 29 2.0 4.0 0.00 0.00 0.00 60 1019.8
20170924093925 76 57 1.0 5.0 0.00 0.00 0.00 60 1019.8
20170924093025 75 35 2.0 4.0 0.00 0.00 0.00 62 1019.8
20170924092125 75 47 2.0 5.0 0.00 0.00 0.00 64 1019.9
20170924091225 74 48 2.0 5.0 0.00 0.00 0.00 63 1019.8
20170924090325 75 56 1.0 3.0 0.00 0.00 0.00 64 1019.8
20170924085425 74 40 1.0 4.0 0.00 0.00 0.00 65 1019.7
20170924084525 73 353 1.0 3.0 0.00 0.00 0.00 67 1019.6
20170924083625 72 1 2.0 4.0 0.00 0.00 0.00 69 1019.5
20170924082725 71 25 2.0 4.0 0.00 0.00 0.00 71 1019.5
20170924081825 70 37 3.0 5.0 0.00 0.00 0.00 72 1019.4
20170924080925 69 9 3.0 5.0 0.00 0.00 0.00 74 1019.4
20170924080025 69 353 3.0 5.0 0.00 0.00 0.00 75 1019.4
20170924075125 69 8 3.0 5.0 0.00 0.00 0.00 75 1019.3
20170924074225 68 332 4.0 6.0 0.00 0.00 0.00 77 1019.3
20170924073325 68 335 3.0 6.0 0.00 0.00 0.00 76 1019.2
20170924072425 69 338 3.0 5.0 0.00 0.00 0.00 75 1019.1
20170924071525 69 350 2.0 4.0 0.00 0.00 0.00 75 1018.9
20170924070625 69 30 2.0 4.0 0.00 0.00 0.00 75 1018.8
20170924065725 69 7 2.0 4.0 0.00 0.00 0.00 75 1018.7
20170924064825 68 23 3.0 6.0 0.00 0.00 0.00 76 1018.6
20170924063925 68 21 2.0 5.0 0.00 0.00 0.00 76 1018.5
20170924063025 68 16 2.0 4.0 0.00 0.00 0.00 76 1018.5
20170924062125 68 5 2.0 3.0 0.00 0.00 0.00 76 1018.5
20170924061225 68 37 2.0 4.0 0.00 0.00 0.00 77 1018.6
20170924060325 68 27 2.0 4.0 0.00 0.00 0.00 76 1018.6
20170924055425 68 7 3.0 5.0 0.00 0.00 0.00 76 1018.4
20170924054525 68 13 2.0 4.0 0.00 0.00 0.00 75 1018.4
20170924053625 68 29 2.0 4.0 0.00 0.00 0.00 75 1018.2
20170924052725 68 30 2.0 4.0 0.00 0.00 0.00 74 1018.2
20170924051825 68 37 2.0 4.0 0.00 0.00 0.00 74 1018.2
20170924050925 69 15 2.0 4.0 0.00 0.00 0.00 74 1018.1
20170924050025 69 17 3.0 5.0 0.00 0.00 0.00 74 1018.0
20170924045125 69 21 3.0 8.0 0.00 0.00 0.00 75 1018.1
20170924044225 70 349 3.0 7.0 0.00 0.00 0.00 73 1018.0
20170924043325 70 319 2.0 7.0 0.00 0.00 0.00 72 1018.0
20170924042425 70 319 2.0 5.0 0.00 0.00 0.00 72 1017.9
20170924041525 71 308 2.0 5.0 0.00 0.00 0.00 74 1017.8
20170924040625 70 301 2.0 4.0 0.00 0.00 0.00 75 1017.8
20170924035725 70 277 2.0 6.0 0.00 0.00 0.00 76 1017.8
20170924034825 70 260 3.0 7.0 0.00 0.00 0.00 77 1017.8
20170924033925 70 263 3.0 8.0 0.00 0.00 0.00 79 1017.8
20170924033025 70 252 1.0 9.0 0.00 0.00 0.00 80 1017.9
20170924032125 70 240 1.0 4.0 0.00 0.00 0.00 79 1017.9
20170924031225 70 246 1.0 4.0 0.00 0.00 0.00 78 1017.8
20170924030325 70 221 1.0 5.0 0.00 0.00 0.00 78 1017.9
20170924025425 69 215 1.0 2.0 0.00 0.00 0.00 79 1017.9
20170924024525 69 224 2.0 5.0 0.00 0.00 0.00 79 1017.8
20170924023625 69 224 2.0 6.0 0.00 0.00 0.00 79 1017.8
20170924022725 69 226 3.0 6.0 0.00 0.00 0.00 78 1017.8
20170924021825 69 225 2.0 6.0 0.00 0.00 0.00 78 1017.9
20170924020925 69 215 2.0 5.0 0.00 0.00 0.00 78 1017.9
20170924020025 70 212 3.0 6.0 0.00 0.00 0.00 78 1018.0
20170924015125 70 227 2.0 5.0 0.00 0.00 0.00 77 1018.1
20170924014225 70 216 3.0 7.0 0.00 0.00 0.00 77 1018.1
20170924013325 70 204 2.0 7.0 0.00 0.00 0.00 76 1018.1
20170924012425 70 195 2.0 5.0 0.00 0.00 0.00 76 1018.1
20170924011525 70 207 3.0 6.0 0.00 0.00 0.00 75 1018.1
20170924010625 71 240 2.0 5.0 0.00 0.00 0.00 75 1018.1
20170924005725 71 218 3.0 5.0 0.00 0.00 0.00 74 1018.0
20170924004825 71 210 3.0 8.0 0.00 0.00 0.00 74 1017.9
20170924003925 72 212 3.0 6.0 0.00 0.00 0.00 73 1017.9
20170924003025 72 206 3.0 7.0 0.00 0.00 0.00 72 1017.9
20170924002125 72 209 3.0 7.0 0.00 0.00 0.00 71 1017.8
20170924001225 73 206 3.0 6.0 0.00 0.00 0.00 70 1017.9
20170924000325 73 210 2.0 6.0 0.00 0.00 0.00 69 1017.8
20170923235425 74 200 2.0 5.0 0.00 0.00 0.00 68 1017.7
20170923234525 74 221 2.0 5.0 0.00 0.00 0.00 67 1017.7
20170923233625 74 215 3.0 7.0 0.00 0.00 0.00 66 1017.6
20170923232725 74 207 2.0 7.0 0.00 0.00 0.00 66 1017.5
20170923231825 75 211 2.0 5.0 0.00 0.00 0.00 66 1017.5
20170923230925 75 222 3.0 6.0 0.00 0.00 0.00 66 1017.5
20170923230025 75 234 2.0 5.0 0.00 0.00 0.00 66 1017.5
20170923225125 75 243 2.0 5.0 0.00 0.00 0.00 65 1017.5
20170923224225 75 234 3.0 8.0 0.00 0.00 0.00 65 1017.5
20170923223325 76 219 3.0 8.0 0.00 0.00 0.00 64 1017.6
20170923222425 76 239 3.0 7.0 0.00 0.00 0.00 63 1017.6
20170923221525 76 279 4.0 9.0 0.00 0.00 0.00 63 1017.6
20170923220625 76 282 4.0 10.0 0.00 0.00 0.00 62 1017.5
20170923215725 76 267 3.0 10.0 0.00 0.00 0.00 60 1017.5
20170923214825 77 255 3.0 8.0 0.00 0.00 0.00 59 1017.4
20170923213925 77 231 4.0 8.0 0.00 0.00 0.00 58 1017.4
20170923213025 77 216 2.0 9.0 0.00 0.00 0.00 57 1017.2
20170923212125 78 247 3.0 7.0 0.00 0.00 0.00 55 1017.1